Time,TemperatureF,DewpointF,PressureIn,WindDirection,WindDirectionDegrees,WindSpeedMPH,WindSpeedGustMPH,Humidity,HourlyPrecipIn,Conditions,Clouds,dailyrainin,SoftwareType,DateUTC
2013-01-12 00:03:00,35.0,34.0,-100.00,NNW,335,2.0,2.0,96,0.00,,,-99.99,,2013-01-12 05:03:00,
2013-01-12 00:12:00,35.0,34.0,-100.00,NW,310,0.0,2.0,96,0.00,,,-99.99,,2013-01-12 05:12:00,
2013-01-12 00:22:00,35.0,34.0,-100.00,WSW,250,0.0,1.0,96,0.00,,,-99.99,,2013-01-12 05:22:00,
2013-01-12 00:32:00,35.0,34.0,-100.00,North,10,0.0,1.0,96,0.00,,,-99.99,,2013-01-12 05:32:00,
2013-01-12 00:42:00,35.0,35.0,-100.00,ENE,60,0.0,1.0,96,0.00,,,-99.99,,2013-01-12 05:42:00,
2013-01-12 00:52:00,35.0,35.0,-100.00,East,85,1.0,2.0,96,0.00,,,-99.99,,2013-01-12 05:52:00,
2013-01-12 01:02:00,36.0,35.0,-100.00,SW,215,1.0,2.0,96,0.00,,,-99.99,,2013-01-12 06:02:00,
2013-01-12 01:12:00,36.0,36.0,-100.00,ENE,60,0.0,4.0,97,0.00,,,-99.99,,2013-01-12 06:12:00,
2013-01-12 01:22:00,36.0,35.0,-100.00,SW,215,0.0,2.0,96,0.00,,,-99.99,,2013-01-12 06:22:00,
2013-01-12 01:33:00,36.0,35.0,-100.00,SSE,160,0.0,1.0,97,0.00,,,-99.99,,2013-01-12 06:33:00,
2013-01-12 01:42:00,36.0,36.0,-100.00,SW,225,1.0,1.0,97,0.00,,,-99.99,,2013-01-12 06:42:00,
2013-01-12 01:52:00,36.0,35.0,-100.00,NE,45,1.0,1.0,97,0.00,,,-99.99,,2013-01-12 06:52:00,
2013-01-12 02:02:00,36.0,36.0,-100.00,ESE,105,1.0,3.0,97,0.00,,,-99.99,,2013-01-12 07:02:00,
2013-01-12 02:12:00,36.0,36.0,-100.00,SSW,195,0.0,4.0,97,0.00,,,-99.99,,2013-01-12 07:12:00,
2013-01-12 02:22:00,36.0,36.0,-100.00,ESE,115,1.0,2.0,97,0.00,,,-99.99,,2013-01-12 07:22:00,
2013-01-12 02:32:00,36.0,35.0,-100.00,WNW,285,0.0,1.0,97,0.00,,,-99.99,,2013-01-12 07:32:00,
2013-01-12 02:42:00,36.0,35.0,-100.00,WNW,290,1.0,1.0,97,0.00,,,-99.99,,2013-01-12 07:42:00,
2013-01-12 02:52:00,36.0,35.0,-100.00,West,260,0.0,1.0,97,0.00,,,-99.99,,2013-01-12 07:52:00,
2013-01-12 03:02:00,36.0,35.0,-100.00,WNW,300,0.0,1.0,97,0.00,,,-99.99,,2013-01-12 08:02:00,
2013-01-12 03:12:00,36.0,35.0,-100.00,NNW,345,1.0,2.0,97,0.00,,,-99.99,,2013-01-12 08:12:00,
2013-01-12 03:22:00,36.0,35.0,-100.00,NNW,335,1.0,1.0,97,0.00,,,-99.99,,2013-01-12 08:22:00,
2013-01-12 03:32:00,36.0,35.0,-100.00,North,350,1.0,1.0,97,0.00,,,-99.99,,2013-01-12 08:32:00,
2013-01-12 03:42:00,36.0,35.0,-100.00,North,10,0.0,1.0,97,0.00,,,-99.99,,2013-01-12 08:42:00,
2013-01-12 03:52:00,35.0,35.0,-100.00,NW,305,1.0,1.0,97,0.00,,,-99.99,,2013-01-12 08:52:00,
2013-01-12 04:02:00,35.0,35.0,-100.00,North,355,1.0,2.0,97,0.00,,,-99.99,,2013-01-12 09:02:00,
2013-01-12 04:12:00,35.0,35.0,-100.00,ESE,120,0.0,1.0,97,0.00,,,-99.99,,2013-01-12 09:12:00,
2013-01-12 04:22:00,35.0,35.0,-100.00,East,95,0.0,1.0,97,0.00,,,-99.99,,2013-01-12 09:22:00,
2013-01-12 04:32:00,35.0,35.0,-100.00,NW,305,1.0,2.0,97,0.00,,,-99.99,,2013-01-12 09:32:00,
2013-01-12 04:42:00,35.0,35.0,-100.00,ENE,60,0.0,2.0,97,0.00,,,-99.99,,2013-01-12 09:42:00,
2013-01-12 04:53:00,35.0,35.0,-100.00,East,100,0.0,2.0,97,0.00,,,-99.99,,2013-01-12 09:53:00,
2013-01-12 05:02:00,35.0,35.0,-100.00,NNW,330,1.0,2.0,97,0.00,,,-99.99,,2013-01-12 10:02:00,
2013-01-12 05:12:00,35.0,35.0,-100.00,North,10,0.0,2.0,97,0.00,,,-99.99,,2013-01-12 10:12:00,
2013-01-12 05:22:00,35.0,35.0,-100.00,NNW,330,1.0,1.0,97,0.00,,,-99.99,,2013-01-12 10:22:00,
2013-01-12 05:32:00,35.0,35.0,-100.00,NNW,340,1.0,2.0,97,0.00,,,-99.99,,2013-01-12 10:32:00,
2013-01-12 05:42:00,35.0,35.0,-100.00,East,100,1.0,2.0,97,0.00,,,-99.99,,2013-01-12 10:42:00,
2013-01-12 05:52:00,36.0,35.0,-100.00,East,85,1.0,4.0,98,0.00,,,-99.99,,2013-01-12 10:52:00,
2013-01-12 06:02:00,35.0,35.0,-100.00,NE,35,1.0,1.0,98,0.00,,,-99.99,,2013-01-12 11:02:00,
2013-01-12 06:12:00,36.0,35.0,-100.00,NNE,30,1.0,2.0,98,0.00,,,-99.99,,2013-01-12 11:12:00,
2013-01-12 06:22:00,35.0,35.0,-100.00,NNW,335,1.0,2.0,98,0.00,,,-99.99,,2013-01-12 11:22:00,
2013-01-12 06:33:00,36.0,35.0,-100.00,NNW,340,1.0,3.0,98,0.00,,,-99.99,,2013-01-12 11:33:00,
2013-01-12 06:42:00,36.0,35.0,-100.00,NNE,20,0.0,2.0,98,0.00,,,-99.99,,2013-01-12 11:42:00,
2013-01-12 06:52:00,35.0,35.0,-100.00,NW,315,0.0,1.0,98,0.00,,,-99.99,,2013-01-12 11:52:00,
2013-01-12 07:03:00,35.0,34.0,-100.00,WNW,295,0.0,1.0,98,0.00,,,-99.99,,2013-01-12 12:03:00,
2013-01-12 07:12:00,35.0,35.0,-100.00,NNW,335,2.0,2.0,98,0.00,,,-99.99,,2013-01-12 12:12:00,
2013-01-12 07:22:00,35.0,35.0,-100.00,NNW,330,0.0,3.0,98,0.00,,,-99.99,,2013-01-12 12:22:00,
2013-01-12 07:32:00,35.0,35.0,-100.00,North,10,1.0,1.0,98,0.00,,,-99.99,,2013-01-12 12:32:00,
2013-01-12 07:42:00,35.0,34.0,-100.00,WNW,285,1.0,2.0,98,0.00,,,-99.99,,2013-01-12 12:42:00,
2013-01-12 07:52:00,35.0,34.0,-100.00,NW,315,1.0,2.0,98,0.00,,,-99.99,,2013-01-12 12:52:00,
2013-01-12 08:02:00,36.0,35.0,-100.00,NW,315,1.0,2.0,98,0.00,,,-99.99,,2013-01-12 13:02:00,
2013-01-12 08:12:00,35.0,35.0,-100.00,NNW,335,1.0,2.0,98,0.00,,,-99.99,,2013-01-12 13:12:00,
2013-01-12 08:22:00,35.0,35.0,-100.00,NNE,20,1.0,2.0,98,0.00,,,-99.99,,2013-01-12 13:22:00,
2013-01-12 08:33:00,36.0,35.0,-100.00,NNW,340,2.0,4.0,98,0.00,,,-99.99,,2013-01-12 13:33:00,
2013-01-12 08:42:00,35.0,35.0,-100.00,SSW,205,0.0,2.0,98,0.00,,,-99.99,,2013-01-12 13:42:00,
2013-01-12 08:53:00,35.0,35.0,-100.00,West,270,1.0,1.0,98,0.00,,,-99.99,,2013-01-12 13:53:00,
2013-01-12 09:02:00,36.0,36.0,-100.00,NE,35,1.0,3.0,98,0.00,,,-99.99,,2013-01-12 14:02:00,
2013-01-12 09:12:00,36.0,36.0,-100.00,NE,35,1.0,2.0,98,0.00,,,-99.99,,2013-01-12 14:12:00,
2013-01-12 09:22:00,36.0,36.0,-100.00,NW,325,1.0,2.0,98,0.00,,,-99.99,,2013-01-12 14:22:00,
2013-01-12 09:33:00,36.0,36.0,-100.00,NE,40,0.0,2.0,98,0.00,,,-99.99,,2013-01-12 14:33:00,
2013-01-12 09:43:00,36.0,36.0,-100.00,NNW,330,1.0,3.0,98,0.00,,,-99.99,,2013-01-12 14:43:00,
2013-01-12 09:53:00,37.0,36.0,-100.00,North,0,1.0,2.0,98,0.00,,,-99.99,,2013-01-12 14:53:00,
2013-01-12 10:03:00,37.0,36.0,-100.00,NNE,25,1.0,3.0,98,0.00,,,-99.99,,2013-01-12 15:03:00,
2013-01-12 10:12:00,37.0,36.0,-100.00,NNW,345,2.0,4.0,98,0.00,,,-99.99,,2013-01-12 15:12:00,
2013-01-12 10:22:00,37.0,36.0,-100.00,NNE,20,1.0,3.0,98,0.00,,,-99.99,,2013-01-12 15:22:00,
2013-01-12 10:33:00,37.0,37.0,-100.00,North,355,1.0,2.0,98,0.00,,,-99.99,,2013-01-12 15:33:00,
2013-01-12 10:43:00,37.0,37.0,-100.00,East,80,0.0,2.0,98,0.00,,,-99.99,,2013-01-12 15:43:00,
2013-01-12 10:53:00,37.0,37.0,-100.00,WNW,295,1.0,2.0,98,0.00,,,-99.99,,2013-01-12 15:53:00,
2013-01-12 11:03:00,38.0,37.0,-100.00,East,100,1.0,3.0,98,0.00,,,-99.99,,2013-01-12 16:03:00,
2013-01-12 11:12:00,38.0,38.0,-100.00,NW,320,1.0,2.0,98,0.00,,,-99.99,,2013-01-12 16:12:00,
2013-01-12 11:23:00,38.0,38.0,-100.00,NE,35,1.0,2.0,98,0.00,,,-99.99,,2013-01-12 16:23:00,
2013-01-12 11:33:00,38.0,38.0,-100.00,ESE,110,1.0,2.0,98,0.00,,,-99.99,,2013-01-12 16:33:00,
2013-01-12 11:42:00,39.0,39.0,-100.00,West,270,2.0,4.0,98,0.00,,,-99.99,,2013-01-12 16:42:00,
2013-01-12 11:53:00,39.0,39.0,-100.00,West,265,0.0,2.0,98,0.00,,,-99.99,,2013-01-12 16:53:00,
2013-01-12 12:02:00,40.0,39.0,-100.00,WSW,255,1.0,2.0,98,0.00,,,-99.99,,2013-01-12 17:02:00,
2013-01-12 12:12:00,40.0,39.0,-100.00,WNW,285,1.0,1.0,98,0.00,,,-99.99,,2013-01-12 17:12:00,
2013-01-12 12:23:00,40.0,40.0,-100.00,WNW,295,1.0,2.0,98,0.00,,,-99.99,,2013-01-12 17:23:00,
2013-01-12 12:33:00,40.0,40.0,-100.00,ENE,70,1.0,2.0,98,0.00,,,-99.99,,2013-01-12 17:33:00,
2013-01-12 12:43:00,41.0,40.0,-100.00,WNW,290,1.0,2.0,98,0.00,,,-99.99,,2013-01-12 17:43:00,
2013-01-12 12:53:00,40.0,40.0,-100.00,South,190,0.0,2.0,98,0.00,,,-99.99,,2013-01-12 17:53:00,
2013-01-12 13:03:00,41.0,40.0,-100.00,WNW,295,1.0,2.0,98,0.00,,,-99.99,,2013-01-12 18:03:00,
2013-01-12 13:12:00,40.0,40.0,-100.00,NNW,340,1.0,2.0,98,0.00,,,-99.99,,2013-01-12 18:12:00,
2013-01-12 13:23:00,40.0,40.0,-100.00,South,180,0.0,1.0,98,0.00,,,-99.99,,2013-01-12 18:23:00,
2013-01-12 13:33:00,41.0,40.0,-100.00,West,270,2.0,4.0,98,0.00,,,-99.99,,2013-01-12 18:33:00,
2013-01-12 13:42:00,41.0,40.0,-100.00,West,270,1.0,3.0,98,0.00,,,-99.99,,2013-01-12 18:42:00,
2013-01-12 13:52:00,40.0,40.0,-100.00,NNE,25,1.0,3.0,98,0.00,,,-99.99,,2013-01-12 18:52:00,
2013-01-12 14:03:00,41.0,40.0,-100.00,West,280,1.0,3.0,98,0.00,,,-99.99,,2013-01-12 19:03:00,
2013-01-12 14:12:00,41.0,40.0,-100.00,SW,235,0.0,1.0,98,0.00,,,-99.99,,2013-01-12 19:12:00,
2013-01-12 14:23:00,41.0,40.0,-100.00,WSW,245,0.0,1.0,98,0.00,,,-99.99,,2013-01-12 19:23:00,
2013-01-12 14:33:00,40.0,40.0,-100.00,South,170,1.0,1.0,98,0.00,,,-99.99,,2013-01-12 19:33:00,
2013-01-12 14:43:00,41.0,40.0,-100.00,SW,230,1.0,2.0,98,0.00,,,-99.99,,2013-01-12 19:43:00,
2013-01-12 14:52:00,40.0,40.0,-100.00,SE,135,0.0,2.0,98,0.00,,,-99.99,,2013-01-12 19:52:00,
2013-01-12 15:03:00,41.0,40.0,-100.00,WNW,290,1.0,2.0,98,0.00,,,-99.99,,2013-01-12 20:03:00,
2013-01-12 15:12:00,41.0,40.0,-100.00,SW,235,0.0,3.0,98,0.00,,,-99.99,,2013-01-12 20:12:00,
2013-01-12 15:22:00,41.0,40.0,-100.00,SW,215,1.0,1.0,98,0.00,,,-99.99,,2013-01-12 20:22:00,
2013-01-12 15:33:00,40.0,40.0,-100.00,SSE,165,1.0,2.0,98,0.00,,,-99.99,,2013-01-12 20:33:00,
2013-01-12 15:42:00,41.0,40.0,-100.00,WSW,250,1.0,1.0,98,0.00,,,-99.99,,2013-01-12 20:42:00,
2013-01-12 15:53:00,40.0,40.0,-100.00,SW,220,0.0,1.0,98,0.00,,,-99.99,,2013-01-12 20:53:00,
2013-01-12 16:03:00,40.0,40.0,-100.00,SSW,200,0.0,3.0,98,0.00,,,-99.99,,2013-01-12 21:03:00,
2013-01-12 16:12:00,40.0,40.0,-100.00,South,175,0.0,1.0,98,0.00,,,-99.99,,2013-01-12 21:12:00,
2013-01-12 16:22:00,40.0,39.0,-100.00,South,190,1.0,1.0,98,0.00,,,-99.99,,2013-01-12 21:22:00,
2013-01-12 16:33:00,39.0,39.0,-100.00,WSW,250,1.0,2.0,98,0.00,,,-99.99,,2013-01-12 21:33:00,
2013-01-12 16:43:00,40.0,39.0,-100.00,WNW,285,1.0,1.0,98,0.00,,,-99.99,,2013-01-12 21:43:00,
2013-01-12 16:52:00,39.0,38.0,-100.00,West,260,1.0,1.0,98,0.00,,,-99.99,,2013-01-12 21:52:00,
2013-01-12 17:03:00,38.0,38.0,-100.00,SW,225,1.0,2.0,98,0.00,,,-99.99,,2013-01-12 22:03:00,
2013-01-12 17:12:00,40.0,39.0,-100.00,SE,140,0.0,2.0,98,0.00,,,-99.99,,2013-01-12 22:12:00,
2013-01-12 17:23:00,40.0,39.0,-100.00,NW,325,0.0,4.0,98,0.00,,,-99.99,,2013-01-12 22:23:00,
2013-01-12 17:33:00,38.0,38.0,-100.00,SE,135,0.0,2.0,98,0.00,,,-99.99,,2013-01-12 22:33:00,
2013-01-12 17:43:00,38.0,37.0,-100.00,South,190,0.0,1.0,98,0.00,,,-99.99,,2013-01-12 22:43:00,
2013-01-12 17:52:00,37.0,37.0,-100.00,SSE,160,0.0,1.0,98,0.00,,,-99.99,,2013-01-12 22:52:00,
2013-01-12 18:03:00,37.0,37.0,-100.00,SSE,165,0.0,1.0,98,0.00,,,-99.99,,2013-01-12 23:03:00,
2013-01-12 18:12:00,37.0,37.0,-100.00,SW,235,0.0,1.0,98,0.00,,,-99.99,,2013-01-12 23:12:00,
2013-01-12 18:22:00,37.0,36.0,-100.00,WNW,285,0.0,1.0,98,0.00,,,-99.99,,2013-01-12 23:22:00,
2013-01-12 18:33:00,37.0,36.0,-100.00,WSW,250,1.0,1.0,98,0.00,,,-99.99,,2013-01-12 23:33:00,
2013-01-12 18:43:00,37.0,36.0,-100.00,WSW,245,1.0,1.0,98,0.00,,,-99.99,,2013-01-12 23:43:00,
2013-01-12 18:53:00,38.0,38.0,-100.00,WSW,250,0.0,2.0,98,0.00,,,-99.99,,2013-01-12 23:53:00,
2013-01-12 19:03:00,37.0,36.0,-100.00,NW,315,1.0,1.0,98,0.00,,,-99.99,,2013-01-13 00:03:00,
2013-01-12 19:12:00,37.0,36.0,-100.00,SSW,210,0.0,1.0,98,0.00,,,-99.99,,2013-01-13 00:12:00,
2013-01-12 19:23:00,36.0,36.0,-100.00,South,180,0.0,1.0,98,0.00,,,-99.99,,2013-01-13 00:23:00,
2013-01-12 19:33:00,37.0,37.0,-100.00,NNW,330,1.0,4.0,98,0.00,,,-99.99,,2013-01-13 00:33:00,
2013-01-12 19:43:00,37.0,37.0,-100.00,NW,325,1.0,2.0,98,0.00,,,-99.99,,2013-01-13 00:43:00,
2013-01-12 19:52:00,37.0,36.0,-100.00,West,275,0.0,2.0,98,0.00,,,-99.99,,2013-01-13 00:52:00,
2013-01-12 20:03:00,37.0,36.0,-100.00,NW,310,1.0,2.0,98,0.00,,,-99.99,,2013-01-13 01:03:00,
2013-01-12 20:12:00,36.0,36.0,-100.00,SSE,160,1.0,2.0,98,0.00,,,-99.99,,2013-01-13 01:12:00,
2013-01-12 20:23:00,37.0,36.0,-100.00,North,355,1.0,1.0,98,0.00,,,-99.99,,2013-01-13 01:23:00,
2013-01-12 20:33:00,37.0,37.0,-100.00,NNW,340,1.0,3.0,98,0.00,,,-99.99,,2013-01-13 01:33:00,
2013-01-12 20:43:00,37.0,36.0,-100.00,West,265,1.0,1.0,98,0.00,,,-99.99,,2013-01-13 01:43:00,
2013-01-12 20:52:00,36.0,36.0,-100.00,South,170,1.0,1.0,98,0.00,,,-99.99,,2013-01-13 01:52:00,
2013-01-12 21:02:00,36.0,36.0,-100.00,ESE,120,1.0,2.0,98,0.00,,,-99.99,,2013-01-13 02:02:00,
2013-01-12 21:12:00,37.0,37.0,-100.00,NNE,15,0.0,2.0,98,0.00,,,-99.99,,2013-01-13 02:12:00,
2013-01-12 21:22:00,37.0,36.0,-100.00,North,5,1.0,2.0,98,0.00,,,-99.99,,2013-01-13 02:22:00,
2013-01-12 21:33:00,36.0,36.0,-100.00,NW,325,1.0,1.0,98,0.00,,,-99.99,,2013-01-13 02:33:00,
2013-01-12 21:43:00,36.0,36.0,-100.00,West,275,0.0,1.0,98,0.00,,,-99.99,,2013-01-13 02:43:00,
2013-01-12 21:52:00,36.0,36.0,-100.00,West,270,1.0,1.0,98,0.00,,,-99.99,,2013-01-13 02:52:00,
2013-01-12 22:02:00,37.0,36.0,-100.00,NW,320,1.0,2.0,98,0.00,,,-99.99,,2013-01-13 03:02:00,
2013-01-12 22:12:00,37.0,36.0,-100.00,West,275,0.0,2.0,98,0.00,,,-99.99,,2013-01-13 03:12:00,
2013-01-12 22:22:00,36.0,35.0,-100.00,WSW,245,1.0,1.0,98,0.00,,,-99.99,,2013-01-13 03:22:00,
2013-01-12 22:33:00,36.0,35.0,-100.00,South,190,0.0,2.0,98,0.00,,,-99.99,,2013-01-13 03:33:00,
2013-01-12 22:43:00,37.0,36.0,-100.00,NNW,345,1.0,2.0,98,0.00,,,-99.99,,2013-01-13 03:43:00,
2013-01-12 22:52:00,37.0,36.0,-100.00,North,350,1.0,2.0,98,0.00,,,-99.99,,2013-01-13 03:52:00,
2013-01-12 23:03:00,37.0,36.0,-100.00,East,85,0.0,1.0,98,0.00,,,-99.99,,2013-01-13 04:03:00,
2013-01-12 23:12:00,36.0,36.0,-100.00,NW,315,0.0,1.0,98,0.00,,,-99.99,,2013-01-13 04:12:00,
2013-01-12 23:22:00,36.0,35.0,-100.00,SSW,195,0.0,1.0,98,0.00,,,-99.99,,2013-01-13 04:22:00,
2013-01-12 23:33:00,36.0,35.0,-100.00,SW,215,1.0,1.0,98,0.00,,,-99.99,,2013-01-13 04:33:00,
2013-01-12 23:42:00,37.0,36.0,-100.00,ESE,110,0.0,2.0,98,0.00,,,-99.99,,2013-01-13 04:42:00,
2013-01-12 23:52:00,37.0,36.0,-100.00,ESE,110,0.0,2.0,98,0.00,,,-99.99,,2013-01-13 04:52:00,